Theta_e
330 329 322 319 308 306 302 307 316 314 317 323 330 327 325 332 325 315 342 345 352 353 356 362 364 362 360 359 359 360 361 361 361 361 360 360 360 359 359 359 359 358 358 357 357 357 356 355 355
322 319 317 309 303 297 300 311 311 316 323 325 330 332 329 327 340 337 338 347 353 354 355 358 364 362 360 359 359 359 360 361 361 361 359 359 359 359 359 360 359 358 358 357 357 356 355 355 354
331 318 308 302 300 296 301 312 314 319 322 323 324 334 332 330 339 340 345 347 349 350 354 358 363 361 360 359 359 359 359 360 360 360 359 358 358 359 360 360 359 359 358 358 357 356 356 355 355
315 310 305 300 297 301 309 313 315 320 323 326 328 320 332 333 333 343 345 348 348 350 355 361 363 362 362 359 359 358 359 359 360 359 358 357 357 358 359 359 359 359 358 357 357 357 356 356 356
309 303 297 293 294 304 311 316 317 317 320 321 323 317 321 330 342 344 348 348 350 352 353 357 363 363 362 359 358 360 359 358 359 359 358 357 357 357 357 358 359 359 360 359 359 359 358 358 357
303 300 293 291 293 304 314 317 317 320 320 318 316 318 321 333 338 344 350 349 352 350 351 355 361 362 362 362 360 359 359 358 358 358 358 358 357 357 356 356 356 357 357 358 358 359 358 358 357
300 296 292 291 294 307 313 317 318 320 318 317 320 313 323 333 339 343 345 348 350 350 348 348 351 356 361 361 360 359 358 358 358 357 357 357 357 357 356 356 357 357 358 358 358 358 358 358 358
300 297 291 291 295 302 313 314 321 320 318 324 323 312 318 331 339 343 345 343 343 343 340 341 343 348 348 353 360 360 359 359 358 357 357 356 356 357 356 355 355 357 358 358 358 357 357 357 357
300 294 291 292 300 301 313 310 316 325 321 322 323 324 330 336 337 336 334 334 336 338 334 336 340 342 345 348 352 357 357 359 358 357 358 354 349 347 350 352 355 357 357 357 357 357 357 357 357
299 292 294 299 299 302 305 311 316 318 318 322 326 331 334 336 335 331 329 329 330 331 331 334 337 345 345 348 345 348 349 350 350 350 348 346 345 343 346 348 353 355 356 357 356 356 356 357 351
296 296 298 302 302 303 304 304 307 315 311 318 323 329 335 334 333 331 327 327 328 332 333 330 339 342 336 334 341 343 343 344 344 345 345 342 342 344 342 342 345 344 350 350 351 349 350 346 341
299 299 301 302 304 303 304 304 309 311 313 322 324 327 332 331 329 327 324 328 330 327 326 328 333 339 334 330 335 337 338 341 344 345 344 341 341 343 332 331 327 339 341 343 343 344 343 337 335
298 298 300 302 302 302 305 306 312 313 318 326 327 325 324 322 323 329 330 329 328 328 329 331 332 338 338 335 335 334 335 337 332 341 336 334 331 329 325 326 324 324 329 339 339 338 336 333 331
299 298 299 299 302 302 308 311 312 314 319 323 326 326 326 326 330 329 329 329 332 334 334 332 331 331 331 331 328 329 328 329 327 329 330 332 328 325 323 322 317 319 321 324 329 334 333 330 331
299 297 297 297 299 300 304 300 309 316 317 318 321 324 328 331 333 332 330 328 327 328 331 329 328 327 326 326 325 325 325 326 326 324 323 324 322 320 321 319 315 318 321 320 318 317 318 318 320
297 295 291 297 300 301 300 294 311 316 315 315 318 322 324 325 326 328 328 327 326 324 324 326 329 324 323 323 323 324 324 324 324 324 324 324 325 322 321 318 317 320 320 318 317 317 315 315 315
294 290 292 297 299 299 298 296 310 313 314 314 316 317 319 320 321 323 325 325 324 323 323 323 324 322 321 321 321 321 321 323 322 322 324 323 325 325 322 322 322 321 322 320 319 317 317 315 315
290 292 293 294 299 297 297 297 306 312 313 313 314 316 317 318 319 322 323 325 324 323 323 322 323 320 319 318 317 317 317 319 320 321 322 324 325 325 322 324 323 324 321 320 318 317 318 316 315
297 295 295 298 300 297 296 299 304 308 309 310 311 313 315 316 319 321 323 324 324 323 322 321 320 319 315 315 312 311 310 313 317 319 323 322 323 323 322 322 322 324 322 320 320 317 318 317 316
297 293 292 296 299 296 297 298 300 305 306 310 311 311 313 313 316 320 321 321 321 321 320 319 319 319 315 314 315 313 312 314 316 318 320 321 323 323 325 323 322 323 321 320 319 318 320 319 319
294 293 293 293 296 295 293 291 296 302 305 308 310 312 312 313 314 315 318 317 318 319 319 319 317 319 316 314 312 312 310 309 312 312 315 319 322 322 321 322 322 321 320 317 319 319 318 316 317
292 298 298 296 292 287 292 284 289 297 300 305 307 306 307 309 309 309 308 310 317 319 318 318 316 314 316 314 310 308 305 303 305 308 310 315 318 320 322 321 319 318 318 319 319 322 320 318 315
296 300 296 295 290 287 289 285 290 297 296 298 299 303 303 303 302 302 304 307 307 308 314 313 313 313 312 314 311 308 307 306 307 308 307 308 310 314 316 315 315 315 315 317 318 319 318 319 316
300 295 292 290 287 283 287 287 289 292 296 298 302 303 303 301 302 301 302 302 303 305 305 305 303 304 304 304 306 307 307 307 307 308 308 308 307 307 310 315 312 312 311 311 312 315 315 314 315
296 289 282 281 283 282 289 290 291 297 299 301 301 300 301 301 300 301 298 300 302 301 301 303 302 302 303 303 304 304 304 304 305 305 306 306 307 307 308 311 310 309 308 309 309 309 312 313 312
291 289 283 278 279 283 290 287 292 299 300 301 301 301 301 299 299 298 299 298 300 301 301 301 301 300 301 303 303 303 303 303 303 303 304 304 305 307 308 308 309 308 309 309 308 306 306 307 310
292 288 291 286 285 282 285 292 297 299 298 298 299 300 299 296 296 296 297 299 300 300 300 300 300 300 301 301 301 301 301 301 301 302 302 303 304 306 307 306 305 306 307 310 310 308 306 305 305
292 295 286 286 281 280 283 286 289 295 296 297 295 294 293 293 294 296 298 299 299 299 300 300 301 300 300 300 300 301 300 301 301 300 300 300 301 302 303 304 306 306 306 307 307 306 306 303 302
292 291 288 288 286 280 280 284 292 294 294 294 293 293 292 293 295 295 296 299 299 300 300 300 300 299 299 300 300 300 300 300 300 299 299 299 300 302 303 303 304 304 303 304 302 301 302 303 302
294 290 289 283 283 285 283 285 294 293 295 295 294 294 293 295 297 296 295 299 299 299 299 299 299 299 300 299 299 299 299 299 298 299 300 302 302 303 305 306 306 307 308 307 305 304 304 303 303
Wind_Speed
2 2 2 3 5 6 3 2 1 7 6 8 12 8 7 7 5 2 5 6 7 6 3 4 8 9 8 9 11 11 10 11 11 10 10 9 9 9 8 7 7 7 8 8 7 7 7 8 8
1 4 3 2 7 4 3 3 7 7 6 9 5 6 4 5 6 4 4 3 5 5 5 4 7 8 9 8 8 9 10 9 9 9 8 8 8 7 6 6 5 5 6 5 4 4 3 4 5
2 1 4 5 4 1 3 5 5 2 8 7 4 5 3 7 5 3 4 7 7 7 6 3 5 7 8 8 6 6 8 8 8 8 7 6 6 5 4 4 4 4 4 4 3 2 1 1 1
3 4 5 5 1 4 6 7 4 6 1 7 3 5 7 8 1 6 7 11 8 5 4 6 7 5 4 6 7 6 4 3 4 5 4 3 3 3 3 2 1 1 2 2 3 3 3 4 4
4 4 5 4 4 4 2 8 6 7 4 4 2 3 6 7 12 9 10 7 9 5 3 6 10 9 6 3 2 5 7 7 6 5 4 2 1 1 2 1 2 2 4 5 4 4 4 6 6
5 4 6 4 4 5 5 6 6 2 1 2 5 6 2 6 9 6 10 10 10 8 7 7 13 13 11 10 6 4 3 3 4 4 4 4 4 4 4 5 5 6 7 7 6 5 6 7 8
6 4 3 3 4 1 4 6 7 5 3 2 4 6 2 2 6 11 12 8 8 5 3 4 5 3 11 12 11 9 7 5 5 6 6 6 7 7 7 7 8 8 8 7 7 8 9 9 9
6 5 4 3 2 2 3 5 7 7 3 3 1 7 5 8 9 7 6 7 5 9 6 6 4 4 3 2 11 12 10 8 7 6 6 6 7 8 8 8 8 9 10 9 10 11 10 10 10
4 6 3 5 4 5 7 6 2 1 9 6 5 5 8 12 6 5 6 6 4 7 6 5 4 5 2 2 3 4 4 3 5 6 7 6 3 5 7 8 10 12 13 11 12 12 11 12 11
6 4 5 5 3 7 5 8 9 4 11 6 13 13 12 11 6 8 8 4 4 4 4 5 6 6 2 2 5 4 3 2 3 4 4 2 3 5 7 9 11 14 14 12 14 12 12 11 4
4 7 5 6 1 5 7 4 2 9 6 5 18 14 13 5 5 8 7 5 3 3 6 8 6 5 6 5 4 3 2 3 3 5 3 4 3 3 3 4 3 4 7 5 6 4 4 4 3
1 4 5 4 4 6 7 5 7 5 5 12 16 15 8 8 7 7 9 5 5 6 5 7 9 6 5 2 1 2 3 3 3 3 1 3 2 3 4 3 4 3 2 4 3 2 2 3 5
2 3 4 6 7 9 12 8 11 12 10 14 16 12 11 9 8 8 8 6 5 5 3 4 5 8 7 7 7 7 7 4 6 5 5 2 3 3 4 3 3 4 4 2 2 1 2 3 4
2 1 4 4 8 6 19 12 8 1 9 15 19 15 11 11 10 9 9 7 6 5 4 3 7 6 7 6 7 5 4 5 4 4 2 3 1 2 3 3 4 4 4 3 2 2 1 3 2
2 5 2 2 2 4 11 6 9 12 8 15 14 14 11 9 8 9 9 9 7 4 4 4 6 6 6 5 5 4 4 6 6 5 7 7 5 4 2 1 3 3 4 5 4 4 3 4 4
6 7 3 5 7 3 5 5 13 11 14 15 12 13 13 10 8 6 7 7 7 8 7 4 4 6 7 6 4 3 4 4 6 6 4 8 7 6 4 4 3 2 1 3 3 3 3 2 3
9 2 4 9 3 1 2 6 14 10 13 17 12 11 11 9 6 6 8 8 8 8 8 6 4 5 6 5 4 4 5 4 4 4 3 4 5 6 5 5 5 6 3 3 2 1 1 2 4
1 3 2 4 7 3 1 5 18 14 14 16 13 11 11 11 10 9 8 7 6 6 6 5 3 3 1 2 3 3 4 3 1 2 3 6 4 5 5 5 6 7 6 7 5 3 3 1 3
6 5 4 2 5 2 4 7 16 11 6 12 11 10 8 9 7 6 7 6 5 3 4 3 3 2 3 2 1 1 1 2 2 2 2 1 3 5 6 5 1 4 5 8 9 5 4 3 2
8 4 3 5 3 3 1 5 6 8 5 11 14 9 9 5 6 6 7 6 7 7 1 2 3 3 3 3 2 2 2 3 2 1 3 3 3 4 4 4 3 6 0 7 7 9 7 3 2
3 4 3 4 6 3 2 6 3 4 5 6 3 5 5 11 10 7 7 4 3 2 5 7 8 8 7 5 1 2 2 2 2 3 3 4 5 5 4 4 3 2 4 9 5 2 10 8 5
1 3 2 4 5 2 4 5 5 5 4 6 6 3 5 6 2 3 3 4 8 8 8 9 8 7 6 4 3 4 4 4 4 4 4 5 5 6 6 6 5 5 3 6 7 4 9 4 12
4 1 3 2 2 3 7 4 7 2 4 3 3 3 4 1 3 2 5 7 6 5 6 3 3 6 7 7 6 5 6 4 5 6 8 7 5 7 7 6 7 6 5 5 5 4 6 5 4
2 5 6 5 3 3 2 4 6 2 2 3 3 4 5 6 5 3 3 1 3 5 5 5 6 6 6 6 6 3 5 6 5 6 6 6 5 5 6 7 7 6 6 6 4 5 5 5 4
8 8 6 7 7 4 6 5 8 5 3 6 8 6 5 4 2 2 4 3 4 5 4 4 5 4 4 2 3 4 6 6 7 7 5 6 5 5 7 6 6 4 4 4 3 3 3 4 4
3 6 7 2 1 6 5 2 6 4 1 3 5 6 3 2 5 6 6 5 6 6 4 1 0 2 4 5 7 6 7 4 5 6 6 5 5 6 7 5 5 5 6 5 5 2 4 4 4
2 2 4 6 2 2 3 3 6 2 3 4 4 4 5 7 5 4 5 4 3 2 1 3 4 6 6 7 6 7 7 7 7 8 6 5 6 5 6 6 6 6 6 5 5 4 5 3 4
2 5 3 4 0 4 5 4 6 6 7 5 4 3 4 2 3 4 0 1 3 3 4 5 6 7 6 7 6 7 7 7 7 6 7 7 7 6 8 7 6 6 6 6 5 4 5 4 4
3 2 7 5 5 6 3 7 4 6 5 7 3 1 0 2 2 5 4 3 3 4 6 7 7 7 7 7 9 9 9 8 8 7 8 9 7 8 10 8 9 7 6 6 6 6 6 6 6
4 4 5 7 4 1 3 8 5 5 6 6 2 2 1 4 4 4 3 3 5 7 7 6 5 6 9 9 9 10 10 9 10 10 11 9 10 9 9 8 8 7 6 6 7 7 6 7 6
Wind_Direction
242 192 161 60 56 57 71 200 261 140 183 267 125 188 187 350 356 50 4 51 66 81 88 117 134 133 126 119 123 121 115 113 113 112 112 109 110 112 109 107 105 99 94 93 91 84 90 101 104
184 132 43 78 77 47 282 236 189 203 162 194 142 189 332 44 61 75 60 57 75 104 75 88 130 127 127 125 126 130 130 128 122 121 121 123 125 125 123 121 120 116 111 105 101 102 98 93 96
234 138 79 87 109 199 187 219 183 224 126 173 212 232 47 356 65 85 101 119 71 49 38 76 106 121 127 131 133 139 141 145 145 139 139 140 137 135 133 131 140 132 121 129 144 165 181 120 167
140 10 34 78 269 254 172 190 166 111 360 242 230 69 91 28 347 95 104 91 84 69 91 89 80 77 104 137 143 136 130 141 146 153 154 157 158 165 159 135 154 155 156 201 207 202 226 248 256
40 52 42 27 278 292 94 157 160 148 197 242 96 74 78 25 79 90 103 104 107 111 110 114 119 115 106 107 140 161 165 171 174 175 178 201 224 270 280 278 284 278 263 241 236 257 269 277 288
34 93 41 337 294 299 84 134 139 173 340 276 79 88 49 314 100 112 117 145 151 148 163 165 153 151 150 144 154 184 205 189 182 193 202 208 218 232 244 253 245 242 248 255 264 262 262 265 268
101 75 202 237 283 187 88 117 154 171 213 1 108 77 21 30 162 157 169 147 111 75 73 32 354 332 157 159 163 174 184 204 215 213 214 217 222 226 228 239 248 256 258 256 257 251 248 252 263
106 92 331 242 221 110 165 127 163 166 219 67 102 139 193 206 201 167 88 44 61 69 44 27 351 288 297 238 176 171 181 201 210 221 236 257 261 250 245 243 254 254 253 252 251 254 256 258 258
107 56 307 265 192 126 187 120 285 155 72 32 8 101 149 175 173 104 78 43 9 61 23 349 318 318 295 307 316 330 284 249 218 230 236 248 261 273 277 271 261 256 252 249 249 246 250 256 258
96 101 262 202 270 137 153 116 150 147 105 73 77 96 153 177 201 116 81 64 49 31 5 15 343 350 325 331 16 11 341 312 302 306 281 259 270 270 277 270 273 269 260 247 245 246 250 257 253
183 187 218 341 135 112 111 88 69 118 71 178 151 165 181 129 71 78 80 63 41 30 5 1 353 356 21 9 27 13 329 324 290 283 275 297 304 308 294 278 291 289 270 239 244 235 237 265 293
189 222 157 168 237 99 108 103 49 52 127 137 145 154 131 113 97 88 79 84 67 59 24 358 353 4 91 121 245 307 329 327 314 291 321 296 299 294 303 305 317 313 313 276 254 249 273 282 297
185 52 123 179 172 109 88 81 115 99 116 110 104 95 95 96 93 83 95 94 92 82 27 8 354 15 9 21 13 4 360 349 336 352 40 8 13 330 331 325 353 354 342 314 280 247 251 279 290
343 137 127 193 168 127 112 133 93 178 136 115 116 117 121 127 128 121 117 124 113 119 105 70 47 34 36 21 14 4 354 346 24 35 22 94 144 349 341 354 2 356 352 346 1 348 309 283 313
49 130 64 202 240 146 135 79 144 150 127 109 114 120 121 125 127 122 126 114 109 101 103 71 74 69 70 54 41 34 25 38 26 11 16 358 353 360 41 57 1 340 345 5 14 23 23 12 350
48 52 46 228 176 262 59 147 154 153 144 127 135 129 130 129 126 132 124 130 142 138 134 135 141 127 108 98 97 85 58 57 45 44 46 30 34 34 6 340 351 320 34 26 9 5 355 336 339
15 354 354 345 29 101 68 142 171 166 167 141 151 143 142 139 154 159 166 167 176 166 160 169 175 154 147 136 127 124 116 97 109 107 81 50 37 35 33 21 357 344 8 23 356 319 4 311 331
14 35 55 51 321 73 26 131 162 169 177 150 151 155 157 160 177 177 180 181 179 175 181 161 186 196 148 63 41 13 24 33 77 127 136 132 104 68 64 33 16 12 1 347 345 330 315 285 320
117 73 19 308 329 76 296 167 175 163 155 147 155 163 170 176 196 192 179 180 175 204 198 178 212 321 358 342 1 26 243 263 297 267 163 153 149 135 131 138 64 12 12 343 342 316 323 316 11
51 59 339 290 322 19 112 256 105 159 174 173 159 160 174 177 198 209 202 186 196 202 157 233 231 234 229 209 200 196 221 264 272 283 288 229 202 169 154 156 175 155 255 329 331 344 317 293 256
45 102 309 255 334 358 19 320 97 47 95 107 153 171 170 180 187 207 212 204 250 249 202 213 214 221 228 232 329 350 357 314 319 290 280 255 223 220 200 225 211 226 236 238 216 293 308 315 324
73 210 269 289 43 258 37 278 10 346 83 143 189 180 198 208 238 334 120 187 222 220 212 222 224 234 250 262 266 230 225 238 240 230 236 234 250 243 222 226 220 224 222 233 233 202 236 272 277
219 268 323 332 182 89 339 84 282 31 63 61 80 176 213 111 161 63 140 203 229 246 228 309 290 275 287 301 322 324 313 316 328 317 312 281 247 240 256 234 206 194 195 220 206 213 214 210 212
28 12 34 53 70 57 293 147 310 286 181 150 172 169 147 129 103 127 197 251 301 30 33 35 13 355 1 1 353 315 281 293 304 296 295 290 296 292 262 246 210 200 192 196 205 176 179 178 219
54 47 346 357 9 221 315 52 238 300 186 171 159 153 135 155 166 24 35 0 76 56 39 67 54 16 343 308 266 258 257 248 251 262 261 274 280 275 258 222 234 210 207 229 232 229 214 186 183
63 133 149 264 299 282 328 155 254 215 307 79 94 144 161 46 17 36 52 76 94 96 73 41 27 347 315 294 291 288 284 277 281 277 282 274 268 277 283 244 236 239 243 233 232 222 244 216 246
154 70 176 106 18 30 278 302 339 188 124 75 116 73 37 20 44 95 110 118 131 131 65 23 325 298 298 303 318 319 314 308 286 284 283 281 286 285 284 269 257 234 228 215 213 214 237 245 244
101 160 52 16 191 298 291 279 233 230 205 151 128 99 34 76 53 30 166 317 343 315 283 298 328 313 319 326 315 303 290 291 288 291 288 287 288 287 292 284 265 248 234 218 209 225 233 233 246
346 13 55 110 129 176 274 269 244 237 179 161 166 174 180 82 346 316 263 284 285 320 329 312 311 323 318 302 299 301 299 299 295 291 285 277 271 277 276 269 264 242 234 228 215 225 242 237 247
176 176 124 117 245 210 162 270 340 96 130 148 149 359 133 242 316 309 224 280 338 303 293 301 321 315 302 292 296 294 293 292 290 287 284 276 280 278 265 276 268 255 240 228 224 226 227 223 233